Location: Newark
(25.6108°S, 54.5803°W)
Time: 16:39:22
(UTC+00:00)

Courier 1B Rocket - Pass Details

Date: 31 October 2020
Orbit: 920 x 1202 km, 28.2° (Epoch: 22 November)

Event Time Altitude Azimuth Distance (km) Brightness Sun altitude
Rises 08:20:36 0° 292° (WNW) 4,044 - -7.1°
Exits shadow 08:22:49 - 293° (WNW) 3,283 7.1 -6.7°
Reaches altitude 10° 08:23:29 10° 293° (WNW) 3,056 6.9 -6.5°
Maximum altitude 08:31:03 76° 18° (NNE) 1,139 5.4 -4.9°
Drops below altitude 10° 08:38:05 10° 102° (ESE) 2,862 9.5 -3.4°
Sets 08:40:43 0° 103° (ESE) 3,775 11.2 -2.8°
